{"data":{"norad_id":58380,"intl_designator":"2023-178G","name":"STARLINK-30915","alt_names":[],"object_type":"PAYLOAD","status":"ACTIVE","operator":null,"country":"US","launch_date":"2023-11-20","launch_site_code":"AFWTR","launch_vehicle":null,"mission":null,"orbit_class":"UNKNOWN","rcs_meters":null,"size_class":null,"mass_kg":null,"dimensions":null,"purposes":["comms"],"wikipedia_slug":null,"has_3d_model":false,"image_url":null,"decayed_at":null,"tle_current":{"epoch":"2026-05-24T16:46:19.255008Z","epoch_age_seconds":104338,"freshness":"FRESH","line1":"1 58380U 23178G   26144.69883397  .00000881  00000+0  41873-4 0  9998","line2":"2 58380  53.1597 278.2847 0001298  81.6367 278.4780 15.30191689142753","mean_motion":15.30191689,"eccentricity":0.0001298,"inclination_deg":53.1597,"raan_deg":278.2847,"arg_perigee_deg":81.6367,"mean_anomaly_deg":278.478,"bstar":4.1873e-5,"rev_number":14275,"period_min":94.105856825105,"perigee_km":474.35031635994,"apogee_km":476.1294529992,"semimajor_km":6853.3768846796,"source":"CELESTRAK","updated_at":"2026-05-25T13:38:18.612734Z"}}}